| time (UTC) | temp F | wind direction | speed MPH | gust MPH | rain 1hr in | rain 24hr in | rain mn in | humidity % | barometer mb |
| 20260510230826 | 73 | 174 | 7.0 | 16.0 | 0.00 | 0.00 | 0.00 | 29 | 1020.6 |
| 20260510230325 | 73 | 125 | 5.0 | 22.0 | 0.00 | 0.00 | 0.00 | 29 | 1020.5 |
| 20260510225816 | 73 | 157 | 4.0 | 22.0 | 0.00 | 0.00 | 0.00 | 29 | 1020.4 |
| 20260510225314 | 73 | 24 | 7.0 | 23.0 | 0.00 | 0.00 | 0.00 | 29 | 1020.5 |
| 20260510224826 | 73 | 209 | 6.0 | 19.0 | 0.00 | 0.00 | 0.00 | 29 | 1020.5 |
| 20260510224326 | 73 | 154 | 9.0 | 19.0 | 0.00 | 0.00 | 0.00 | 28 | 1020.6 |
| 20260510223817 | 73 | 229 | 6.0 | 24.0 | 0.00 | 0.00 | 0.00 | 29 | 1020.4 |
| 20260510223314 | 74 | 173 | 11.0 | 25.0 | 0.00 | 0.00 | 0.00 | 27 | 1020.4 |
| 20260510222827 | 73 | 53 | 8.0 | 21.0 | 0.00 | 0.00 | 0.00 | 29 | 1020.3 |
| 20260510222325 | 74 | 208 | 10.0 | 21.0 | 0.00 | 0.00 | 0.00 | 30 | 1020.4 |
| 20260510221816 | 74 | 169 | 6.0 | 20.0 | 0.00 | 0.00 | 0.00 | 28 | 1020.3 |
| 20260510221314 | 74 | 199 | 10.0 | 20.0 | 0.00 | 0.00 | 0.00 | 27 | 1020.1 |
| 20260510220827 | 74 | 201 | 6.0 | 16.0 | 0.00 | 0.00 | 0.00 | 28 | 1020.1 |
| 20260510220325 | 74 | 157 | 7.0 | 22.0 | 0.00 | 0.00 | 0.00 | 28 | 1020.2 |
| 20260510215814 | 75 | 9 | 9.0 | 22.0 | 0.00 | 0.00 | 0.00 | 28 | 1020.1 |
| 20260510215313 | 74 | 247 | 6.0 | 21.0 | 0.00 | 0.00 | 0.00 | 28 | 1020.1 |
| 20260510214810 | 74 | 185 | 4.0 | 13.0 | 0.00 | 0.00 | 0.00 | 28 | 1019.9 |
| 20260510214329 | 74 | 97 | 6.0 | 17.0 | 0.00 | 0.00 | 0.00 | 28 | 1020.0 |
| 20260510213820 | 75 | 194 | 6.0 | 17.0 | 0.00 | 0.00 | 0.00 | 28 | 1019.9 |
| 20260510213318 | 75 | 186 | 7.0 | 19.0 | 0.00 | 0.00 | 0.00 | 27 | 1020.0 |
| 20260510212809 | 75 | 190 | 9.0 | 20.0 | 0.00 | 0.00 | 0.00 | 27 | 1019.8 |
| 20260510212328 | 74 | 180 | 7.0 | 17.0 | 0.00 | 0.00 | 0.00 | 27 | 1019.8 |
| 20260510211818 | 74 | 175 | 5.0 | 19.0 | 0.00 | 0.00 | 0.00 | 28 | 1019.7 |
| 20260510211316 | 73 | 123 | 8.0 | 24.0 | 0.00 | 0.00 | 0.00 | 29 | 1019.8 |
| 20260510210829 | 73 | 49 | 6.0 | 24.0 | 0.00 | 0.00 | 0.00 | 28 | 1019.8 |
| 20260510210327 | 73 | 270 | 6.0 | 16.0 | 0.00 | 0.00 | 0.00 | 29 | 1019.9 |
| 20260510205817 | 72 | 107 | 7.0 | 19.0 | 0.00 | 0.00 | 0.00 | 29 | 1019.9 |
| 20260510205315 | 72 | 151 | 5.0 | 19.0 | 0.00 | 0.00 | 0.00 | 28 | 1020.0 |
| 20260510204849 | 72 | 117 | 6.0 | 16.0 | 0.00 | 0.00 | 0.00 | 29 | 1019.9 |
| 20260510204325 | 72 | 87 | 5.0 | 16.0 | 0.00 | 0.00 | 0.00 | 29 | 1019.9 |
| 20260510203818 | 74 | 72 | 9.0 | 20.0 | 0.00 | 0.00 | 0.00 | 27 | 1019.8 |
| 20260510203315 | 75 | 75 | 9.0 | 20.0 | 0.00 | 0.00 | 0.00 | 19 | 1019.7 |
| 20260510202828 | 74 | 86 | 7.0 | 20.0 | 0.00 | 0.00 | 0.00 | 21 | 1019.8 |
| 20260510202326 | 74 | 110 | 4.0 | 17.0 | 0.00 | 0.00 | 0.00 | 23 | 1019.7 |
| 20260510201818 | 75 | 96 | 8.0 | 17.0 | 0.00 | 0.00 | 0.00 | 22 | 1020.0 |
| 20260510201320 | 75 | 114 | 7.0 | 14.0 | 0.00 | 0.00 | 0.00 | 23 | 1019.8 |
| 20260510200811 | 74 | 100 | 6.0 | 17.0 | 0.00 | 0.00 | 0.00 | 23 | 1019.9 |
| 20260510200330 | 74 | 26 | 8.0 | 18.0 | 0.00 | 0.00 | 0.00 | 24 | 1020.0 |
| 20260510195820 | 74 | 107 | 9.0 | 18.0 | 0.00 | 0.00 | 0.00 | 23 | 1019.8 |
| 20260510195340 | 74 | 66 | 7.0 | 13.0 | 0.00 | 0.00 | 0.00 | 20 | 1020.1 |
| 20260510194810 | 74 | 71 | 8.0 | 13.0 | 0.00 | 0.00 | 0.00 | 20 | 1020.1 |
| 20260510194328 | 74 | 75 | 6.0 | 10.0 | 0.00 | 0.00 | 0.00 | 22 | 1020.0 |
| 20260510193819 | 73 | 43 | 1.0 | 4.0 | 0.00 | 0.00 | 0.00 | 20 | 1020.1 |
| 20260510193317 | 73 | 36 | 0.0 | 10.0 | 0.00 | 0.00 | 0.00 | 20 | 1020.1 |
| 20260510192809 | 73 | 63 | 2.0 | 14.0 | 0.00 | 0.00 | 0.00 | 19 | 1020.2 |
| 20260510192328 | 73 | 186 | 5.0 | 14.0 | 0.00 | 0.00 | 0.00 | 20 | 1020.2 |
| 20260510191819 | 73 | 179 | 4.0 | 12.0 | 0.00 | 0.00 | 0.00 | 20 | 1020.1 |
| 20260510191316 | 73 | 159 | 1.0 | 10.0 | 0.00 | 0.00 | 0.00 | 21 | 1020.3 |
| 20260510190829 | 74 | 136 | 3.0 | 10.0 | 0.00 | 0.00 | 0.00 | 20 | 1020.3 |
| 20260510190348 | 74 | 65 | 3.0 | 12.0 | 0.00 | 0.00 | 0.00 | 20 | 1020.3 |
| 20260510185819 | 74 | 174 | 5.0 | 12.0 | 0.00 | 0.00 | 0.00 | 21 | 1020.4 |
| 20260510185317 | 74 | 186 | 6.0 | 10.0 | 0.00 | 0.00 | 0.00 | 22 | 1020.5 |
| 20260510184809 | 74 | 264 | 4.0 | 10.0 | 0.00 | 0.00 | 0.00 | 24 | 1020.4 |
| 20260510184328 | 74 | 198 | 1.0 | 16.0 | 0.00 | 0.00 | 0.00 | 22 | 1020.3 |
| 20260510183841 | 75 | 146 | 9.0 | 16.0 | 0.00 | 0.00 | 0.00 | 22 | 1020.4 |
| 20260510183318 | 75 | 105 | 3.0 | 9.0 | 0.00 | 0.00 | 0.00 | 21 | 1020.4 |
| 20260510182810 | 75 | 146 | 5.0 | 11.0 | 0.00 | 0.00 | 0.00 | 25 | 1020.5 |
| 20260510182312 | 75 | 216 | 3.0 | 14.0 | 0.00 | 0.00 | 0.00 | 23 | 1020.5 |
| 20260510181825 | 76 | 181 | 4.0 | 14.0 | 0.00 | 0.00 | 0.00 | 24 | 1020.5 |
| 20260510181321 | 76 | 207 | 7.0 | 18.0 | 0.00 | 0.00 | 0.00 | 23 | 1020.6 |
| 20260510180813 | 75 | 168 | 9.0 | 18.0 | 0.00 | 0.00 | 0.00 | 26 | 1020.7 |
| 20260510180332 | 75 | 304 | 5.0 | 19.0 | 0.00 | 0.00 | 0.00 | 26 | 1020.6 |
| 20260510175823 | 75 | 192 | 6.0 | 19.0 | 0.00 | 0.00 | 0.00 | 25 | 1020.8 |
| 20260510175320 | 74 | 191 | 4.0 | 15.0 | 0.00 | 0.00 | 0.00 | 25 | 1020.8 |
| 20260510174812 | 73 | 210 | 6.0 | 15.0 | 0.00 | 0.00 | 0.00 | 24 | 1020.8 |
| 20260510174310 | 73 | 252 | 3.0 | 10.0 | 0.00 | 0.00 | 0.00 | 27 | 1020.9 |
| 20260510173822 | 73 | 198 | 5.0 | 17.0 | 0.00 | 0.00 | 0.00 | 26 | 1020.9 |
| 20260510173342 | 74 | 158 | 5.0 | 17.0 | 0.00 | 0.00 | 0.00 | 24 | 1021.0 |
| 20260510172813 | 74 | 282 | 3.0 | 11.0 | 0.00 | 0.00 | 0.00 | 25 | 1020.9 |
| 20260510172333 | 73 | 150 | 3.0 | 6.0 | 0.00 | 0.00 | 0.00 | 26 | 1020.9 |
| 20260510171824 | 73 | 84 | 2.0 | 12.0 | 0.00 | 0.00 | 0.00 | 26 | 1020.9 |
| 20260510171322 | 73 | 109 | 6.0 | 12.0 | 0.00 | 0.00 | 0.00 | 25 | 1021.0 |
| 20260510170813 | 72 | 94 | 2.0 | 6.0 | 0.00 | 0.00 | 0.00 | 27 | 1021.0 |
| 20260510170311 | 71 | 115 | 1.0 | 5.0 | 0.00 | 0.00 | 0.00 | 32 | 1021.0 |
| 20260510165827 | 71 | 220 | 3.0 | 9.0 | 0.00 | 0.00 | 0.00 | 27 | 1021.0 |
| 20260510165325 | 70 | 360 | 4.0 | 10.0 | 0.00 | 0.00 | 0.00 | 27 | 1021.0 |
| 20260510164837 | 70 | 69 | 6.0 | 10.0 | 0.00 | 0.00 | 0.00 | 28 | 1021.0 |
| 20260510164314 | 70 | 118 | 3.0 | 10.0 | 0.00 | 0.00 | 0.00 | 28 | 1021.0 |
| 20260510163826 | 70 | 128 | 5.0 | 10.0 | 0.00 | 0.00 | 0.00 | 29 | 1021.1 |
| 20260510163323 | 69 | 97 | 3.0 | 8.0 | 0.00 | 0.00 | 0.00 | 30 | 1021.2 |
| 20260510162815 | 69 | 329 | 5.0 | 8.0 | 0.00 | 0.00 | 0.00 | 29 | 1021.2 |
| 20260510162314 | 68 | 84 | 3.0 | 8.0 | 0.00 | 0.00 | 0.00 | 30 | 1021.2 |
| 20260510161825 | 68 | 36 | 2.0 | 4.0 | 0.00 | 0.00 | 0.00 | 32 | 1021.2 |
| 20260510161323 | 68 | 159 | 2.0 | 4.0 | 0.00 | 0.00 | 0.00 | 30 | 1021.2 |
| 20260510160818 | 67 | 89 | 2.0 | 6.0 | 0.00 | 0.00 | 0.00 | 32 | 1021.2 |
| 20260510160315 | 67 | 360 | 2.0 | 11.0 | 0.00 | 0.00 | 0.00 | 30 | 1021.2 |
| 20260510155829 | 67 | 360 | 3.0 | 11.0 | 0.00 | 0.00 | 0.00 | 32 | 1021.2 |
| 20260510155326 | 66 | 360 | 5.0 | 13.0 | 0.00 | 0.00 | 0.00 | 33 | 1021.4 |
| 20260510154817 | 66 | 360 | 5.0 | 13.0 | 0.00 | 0.00 | 0.00 | 32 | 1021.4 |
| 20260510154315 | 65 | 360 | 4.0 | 10.0 | 0.00 | 0.00 | 0.00 | 34 | 1021.3 |
| 20260510153828 | 64 | 360 | 5.0 | 10.0 | 0.00 | 0.00 | 0.00 | 35 | 1021.3 |
| 20260510153325 | 64 | 360 | 6.0 | 10.0 | 0.00 | 0.00 | 0.00 | 35 | 1021.2 |
| 20260510152816 | 64 | 360 | 3.0 | 9.0 | 0.00 | 0.00 | 0.00 | 35 | 1021.2 |
| 20260510152314 | 63 | 360 | 3.0 | 11.0 | 0.00 | 0.00 | 0.00 | 37 | 1021.3 |
| 20260510151826 | 63 | 360 | 7.0 | 11.0 | 0.00 | 0.00 | 0.00 | 36 | 1021.3 |
| 20260510151324 | 63 | 360 | 6.0 | 10.0 | 0.00 | 0.00 | 0.00 | 37 | 1021.2 |
| 20260510150817 | 63 | 360 | 7.0 | 12.0 | 0.00 | 0.00 | 0.00 | 36 | 1021.2 |
| 20260510150314 | 63 | 360 | 5.0 | 12.0 | 0.00 | 0.00 | 0.00 | 37 | 1021.3 |
| 20260510145827 | 62 | 360 | 5.0 | 11.0 | 0.00 | 0.00 | 0.00 | 37 | 1021.3 |
| 20260510145325 | 62 | 360 | 6.0 | 12.0 | 0.00 | 0.00 | 0.00 | 36 | 1021.3 |
| 20260510144816 | 62 | 360 | 7.0 | 13.0 | 0.00 | 0.00 | 0.00 | 36 | 1021.2 |
| 20260510144336 | 62 | 360 | 8.0 | 13.0 | 0.00 | 0.00 | 0.00 | 36 | 1021.1 |
| 20260510143828 | 62 | 360 | 5.0 | 12.0 | 0.00 | 0.00 | 0.00 | 35 | 1021.0 |
| 20260510143326 | 62 | 360 | 7.0 | 12.0 | 0.00 | 0.00 | 0.00 | 35 | 1020.8 |
| 20260510142840 | 62 | 360 | 6.0 | 11.0 | 0.00 | 0.00 | 0.00 | 34 | 1020.8 |
| 20260510142317 | 62 | 360 | 4.0 | 10.0 | 0.00 | 0.00 | 0.00 | 33 | 1020.8 |
| 20260510141830 | 62 | 360 | 4.0 | 10.0 | 0.00 | 0.00 | 0.00 | 32 | 1020.8 |
| 20260510141327 | 62 | 360 | 3.0 | 8.0 | 0.00 | 0.00 | 0.00 | 31 | 1020.7 |
| 20260510140818 | 61 | 360 | 3.0 | 9.0 | 0.00 | 0.00 | 0.00 | 31 | 1020.6 |
| 20260510140316 | 61 | 360 | 5.0 | 9.0 | 0.00 | 0.00 | 0.00 | 37 | 1020.5 |
| 20260510135829 | 61 | 360 | 2.0 | 8.0 | 0.00 | 0.00 | 0.00 | 33 | 1020.5 |
| 20260510135348 | 61 | 360 | 5.0 | 10.0 | 0.00 | 0.00 | 0.00 | 32 | 1020.4 |
| 20260510134818 | 61 | 360 | 5.0 | 10.0 | 0.00 | 0.00 | 0.00 | 34 | 1020.3 |
| 20260510134321 | 61 | 360 | 4.0 | 9.0 | 0.00 | 0.00 | 0.00 | 31 | 1020.3 |
| 20260510133814 | 61 | 360 | 4.0 | 8.0 | 0.00 | 0.00 | 0.00 | 31 | 1020.3 |
| 20260510133312 | 59 | 360 | 5.0 | 8.0 | 0.00 | 0.00 | 0.00 | 31 | 1020.4 |
| 20260510132824 | 57 | 360 | 2.0 | 4.0 | 0.00 | 0.00 | 0.00 | 35 | 1020.3 |
| 20260510132322 | 56 | 360 | 0.0 | 2.0 | 0.00 | 0.00 | 0.00 | 37 | 1020.2 |
| 20260510131814 | 55 | 360 | 1.0 | 2.0 | 0.00 | 0.00 | 0.00 | 38 | 1020.1 |
| 20260510131313 | 55 | 322 | 1.0 | 3.0 | 0.00 | 0.00 | 0.00 | 39 | 1019.9 |
| 20260510130824 | 55 | 320 | 0.0 | 3.0 | 0.00 | 0.00 | 0.00 | 39 | 1019.8 |
| 20260510130322 | 54 | 360 | 1.0 | 2.0 | 0.00 | 0.00 | 0.00 | 41 | 1019.8 |
| 20260510125813 | 53 | 360 | 0.0 | 2.0 | 0.00 | 0.00 | 0.00 | 39 | 1019.6 |
| 20260510125311 | 53 | 360 | 1.0 | 2.0 | 0.00 | 0.00 | 0.00 | 39 | 1019.6 |
| 20260510124847 | 53 | 360 | 1.0 | 2.0 | 0.00 | 0.00 | 0.00 | 38 | 1019.6 |
| 20260510124346 | 53 | 360 | 0.0 | 2.0 | 0.00 | 0.00 | 0.00 | 38 | 1019.5 |
| 20260510123818 | 53 | 360 | 1.0 | 2.0 | 0.00 | 0.00 | 0.00 | 38 | 1019.5 |
| 20260510123316 | 53 | 360 | 1.0 | 2.0 | 0.00 | 0.00 | 0.00 | 37 | 1019.3 |
| 20260510122830 | 53 | 360 | 1.0 | 2.0 | 0.00 | 0.00 | 0.00 | 37 | 1019.3 |
| 20260510122328 | 53 | 360 | 0.0 | 2.0 | 0.00 | 0.00 | 0.00 | 37 | 1019.5 |
| 20260510121820 | 54 | 360 | 1.0 | 2.0 | 0.00 | 0.00 | 0.00 | 36 | 1019.3 |
| 20260510121319 | 54 | 360 | 1.0 | 2.0 | 0.00 | 0.00 | 0.00 | 35 | 1019.1 |
| 20260510120810 | 54 | 360 | 0.0 | 2.0 | 0.00 | 0.00 | 0.00 | 35 | 1019.1 |
| 20260510120329 | 54 | 360 | 1.0 | 2.0 | 0.00 | 0.00 | 0.00 | 35 | 1019.1 |
| 20260510115820 | 54 | 360 | 1.0 | 2.0 | 0.00 | 0.00 | 0.00 | 35 | 1019.1 |
| 20260510115339 | 55 | 360 | 1.0 | 3.0 | 0.00 | 0.00 | 0.00 | 34 | 1019.0 |
| 20260510114810 | 55 | 360 | 2.0 | 3.0 | 0.00 | 0.00 | 0.00 | 34 | 1018.9 |
| 20260510114313 | 55 | 360 | 2.0 | 3.0 | 0.00 | 0.00 | 0.00 | 34 | 1018.9 |
| 20260510113825 | 55 | 360 | 0.0 | 1.0 | 0.00 | 0.00 | 0.00 | 34 | 1018.9 |
| 20260510113323 | 55 | 360 | 0.0 | 2.0 | 0.00 | 0.00 | 0.00 | 34 | 1018.9 |
| 20260510112836 | 55 | 360 | 0.0 | 2.0 | 0.00 | 0.00 | 0.00 | 34 | 1018.9 |
| 20260510112311 | 56 | 360 | 1.0 | 3.0 | 0.00 | 0.00 | 0.00 | 34 | 1018.8 |
| 20260510111825 | 56 | 360 | 1.0 | 3.0 | 0.00 | 0.00 | 0.00 | 35 | 1018.7 |
| 20260510111322 | 56 | 360 | 0.0 | 2.0 | 0.00 | 0.00 | 0.00 | 35 | 1018.7 |
| 20260510110814 | 56 | 360 | 0.0 | 2.0 | 0.00 | 0.00 | 0.00 | 35 | 1018.6 |
| 20260510110312 | 56 | 360 | 0.0 | 3.0 | 0.00 | 0.00 | 0.00 | 33 | 1018.4 |
| 20260510105846 | 57 | 360 | 2.0 | 3.0 | 0.00 | 0.00 | 0.00 | 34 | 1018.3 |
| 20260510105324 | 57 | 360 | 0.0 | 2.0 | 0.00 | 0.00 | 0.00 | 35 | 1018.3 |
| 20260510104815 | 57 | 360 | 0.0 | 2.0 | 0.00 | 0.00 | 0.00 | 34 | 1018.2 |
| 20260510104312 | 57 | 360 | 1.0 | 2.0 | 0.00 | 0.00 | 0.00 | 33 | 1018.1 |
| 20260510103825 | 58 | 360 | 0.0 | 1.0 | 0.00 | 0.00 | 0.00 | 32 | 1018.1 |
| 20260510103345 | 58 | 360 | 0.0 | 1.0 | 0.00 | 0.00 | 0.00 | 32 | 1018.0 |
| 20260510102815 | 58 | 360 | 0.0 | 1.0 | 0.00 | 0.00 | 0.00 | 32 | 1017.9 |
| 20260510102334 | 58 | 360 | 0.0 | 1.0 | 0.00 | 0.00 | 0.00 | 32 | 1017.7 |
| 20260510101824 | 58 | 360 | 0.0 | 2.0 | 0.00 | 0.00 | 0.00 | 31 | 1017.8 |
| 20260510101322 | 58 | 360 | 0.0 | 2.0 | 0.00 | 0.00 | 0.00 | 31 | 1017.7 |
| 20260510100814 | 58 | 360 | 1.0 | 2.0 | 0.00 | 0.00 | 0.00 | 31 | 1017.7 |
| 20260510100311 | 59 | 360 | 0.0 | 3.0 | 0.00 | 0.00 | 0.00 | 31 | 1017.7 |
| 20260510095825 | 59 | 360 | 1.0 | 3.0 | 0.00 | 0.00 | 0.00 | 31 | 1017.7 |
| 20260510095322 | 59 | 360 | 1.0 | 2.0 | 0.00 | 0.00 | 0.00 | 32 | 1017.5 |
| 20260510094813 | 59 | 360 | 0.0 | 3.0 | 0.00 | 0.00 | 0.00 | 31 | 1017.4 |
| 20260510094333 | 59 | 360 | 2.0 | 3.0 | 0.00 | 0.00 | 0.00 | 30 | 1017.3 |
| 20260510093824 | 59 | 360 | 1.0 | 2.0 | 0.00 | 0.00 | 0.00 | 31 | 1017.3 |
| 20260510093326 | 60 | 360 | 0.0 | 1.0 | 0.00 | 0.00 | 0.00 | 31 | 1017.3 |
| 20260510092818 | 60 | 360 | 0.0 | 2.0 | 0.00 | 0.00 | 0.00 | 30 | 1017.2 |
| 20260510092316 | 60 | 360 | 0.0 | 3.0 | 0.00 | 0.00 | 0.00 | 30 | 1017.2 |
| 20260510091827 | 60 | 360 | 0.0 | 3.0 | 0.00 | 0.00 | 0.00 | 29 | 1017.0 |
| 20260510091348 | 60 | 360 | 2.0 | 3.0 | 0.00 | 0.00 | 0.00 | 30 | 1017.0 |
| 20260510090818 | 60 | 360 | 1.0 | 3.0 | 0.00 | 0.00 | 0.00 | 29 | 1016.9 |
| 20260510090337 | 59 | 360 | 2.0 | 3.0 | 0.00 | 0.00 | 0.00 | 30 | 1017.1 |
| 20260510085850 | 59 | 360 | 1.0 | 3.0 | 0.00 | 0.00 | 0.00 | 30 | 1017.1 |
| 20260510085327 | 59 | 360 | 0.0 | 4.0 | 0.00 | 0.00 | 0.00 | 30 | 1016.9 |
| 20260510084819 | 59 | 360 | 2.0 | 4.0 | 0.00 | 0.00 | 0.00 | 29 | 1016.8 |
| 20260510084316 | 60 | 360 | 0.0 | 2.0 | 0.00 | 0.00 | 0.00 | 30 | 1016.9 |
| 20260510083829 | 60 | 360 | 1.0 | 2.0 | 0.00 | 0.00 | 0.00 | 30 | 1016.8 |
| 20260510083349 | 60 | 360 | 0.0 | 3.0 | 0.00 | 0.00 | 0.00 | 30 | 1016.8 |
| 20260510082818 | 60 | 360 | 0.0 | 3.0 | 0.00 | 0.00 | 0.00 | 30 | 1016.5 |
| 20260510082316 | 60 | 360 | 1.0 | 2.0 | 0.00 | 0.00 | 0.00 | 29 | 1016.3 |
| 20260510081829 | 61 | 360 | 1.0 | 2.0 | 0.00 | 0.00 | 0.00 | 29 | 1016.6 |
| 20260510081327 | 61 | 360 | 0.0 | 2.0 | 0.00 | 0.00 | 0.00 | 28 | 1016.7 |
| 20260510080817 | 61 | 360 | 1.0 | 3.0 | 0.00 | 0.00 | 0.00 | 28 | 1016.6 |
| 20260510080315 | 61 | 360 | 0.0 | 3.0 | 0.00 | 0.00 | 0.00 | 28 | 1016.7 |
| 20260510075827 | 61 | 360 | 2.0 | 4.0 | 0.00 | 0.00 | 0.00 | 28 | 1016.6 |
| 20260510075324 | 61 | 360 | 2.0 | 4.0 | 0.00 | 0.00 | 0.00 | 28 | 1016.6 |
| 20260510074837 | 62 | 360 | 0.0 | 3.0 | 0.00 | 0.00 | 0.00 | 28 | 1016.6 |
| 20260510074314 | 62 | 360 | 2.0 | 3.0 | 0.00 | 0.00 | 0.00 | 27 | 1016.6 |
| 20260510073828 | 63 | 360 | 0.0 | 2.0 | 0.00 | 0.00 | 0.00 | 27 | 1016.6 |
| 20260510073325 | 63 | 360 | 0.0 | 1.0 | 0.00 | 0.00 | 0.00 | 26 | 1016.6 |
| 20260510072822 | 64 | 360 | 0.0 | 2.0 | 0.00 | 0.00 | 0.00 | 26 | 1016.5 |
| 20260510072320 | 64 | 360 | 1.0 | 2.0 | 0.00 | 0.00 | 0.00 | 25 | 1016.5 |
| 20260510071810 | 65 | 360 | 1.0 | 6.0 | 0.00 | 0.00 | 0.00 | 25 | 1016.5 |
| 20260510071330 | 65 | 360 | 2.0 | 6.0 | 0.00 | 0.00 | 0.00 | 24 | 1016.5 |
| 20260510070821 | 65 | 360 | 3.0 | 9.0 | 0.00 | 0.00 | 0.00 | 24 | 1016.5 |
| 20260510070318 | 65 | 360 | 3.0 | 9.0 | 0.00 | 0.00 | 0.00 | 24 | 1016.5 |
| 20260510065831 | 65 | 360 | 4.0 | 9.0 | 0.00 | 0.00 | 0.00 | 24 | 1016.5 |
| 20260510065329 | 65 | 360 | 3.0 | 9.0 | 0.00 | 0.00 | 0.00 | 24 | 1016.5 |
| 20260510064820 | 65 | 360 | 4.0 | 8.0 | 0.00 | 0.00 | 0.00 | 24 | 1016.4 |
| 20260510064317 | 64 | 360 | 3.0 | 8.0 | 0.00 | 0.00 | 0.00 | 24 | 1016.3 |
| 20260510063830 | 64 | 360 | 3.0 | 6.0 | 0.00 | 0.00 | 0.00 | 24 | 1016.4 |
| 20260510063328 | 64 | 360 | 3.0 | 5.0 | 0.00 | 0.00 | 0.00 | 24 | 1016.4 |
| 20260510062821 | 64 | 360 | 3.0 | 5.0 | 0.00 | 0.00 | 0.00 | 24 | 1016.4 |
| 20260510062318 | 64 | 360 | 1.0 | 8.0 | 0.00 | 0.00 | 0.00 | 24 | 1016.4 |
| 20260510061810 | 64 | 360 | 4.0 | 8.0 | 0.00 | 0.00 | 0.00 | 24 | 1016.4 |
| 20260510061330 | 64 | 360 | 3.0 | 5.0 | 0.00 | 0.00 | 0.00 | 24 | 1016.3 |
| 20260510060819 | 64 | 360 | 3.0 | 5.0 | 0.00 | 0.00 | 0.00 | 24 | 1016.3 |
| 20260510060317 | 65 | 360 | 1.0 | 5.0 | 0.00 | 0.00 | 0.00 | 24 | 1016.4 |
| 20260510055832 | 65 | 360 | 2.0 | 5.0 | 0.00 | 0.00 | 0.00 | 24 | 1016.4 |
| 20260510055331 | 65 | 360 | 1.0 | 5.0 | 0.00 | 0.00 | 0.00 | 23 | 1016.4 |
| 20260510054821 | 65 | 360 | 1.0 | 4.0 | 0.00 | 0.00 | 0.00 | 23 | 1016.3 |
| 20260510054319 | 66 | 360 | 1.0 | 6.0 | 0.00 | 0.00 | 0.00 | 23 | 1016.3 |
| 20260510053832 | 66 | 360 | 3.0 | 6.0 | 0.00 | 0.00 | 0.00 | 23 | 1016.3 |
| 20260510053309 | 66 | 360 | 3.0 | 8.0 | 0.00 | 0.00 | 0.00 | 23 | 1016.3 |
| 20260510052821 | 66 | 360 | 3.0 | 8.0 | 0.00 | 0.00 | 0.00 | 22 | 1016.3 |
| 20260510052318 | 66 | 360 | 4.0 | 8.0 | 0.00 | 0.00 | 0.00 | 22 | 1016.4 |
| 20260510051815 | 66 | 360 | 3.0 | 6.0 | 0.00 | 0.00 | 0.00 | 22 | 1016.4 |
| 20260510051312 | 66 | 360 | 2.0 | 5.0 | 0.00 | 0.00 | 0.00 | 22 | 1016.3 |
| 20260510050825 | 67 | 360 | 1.0 | 5.0 | 0.00 | 0.00 | 0.00 | 22 | 1016.3 |
| 20260510050322 | 67 | 360 | 2.0 | 5.0 | 0.00 | 0.00 | 0.00 | 22 | 1016.2 |
| 20260510045814 | 68 | 360 | 2.0 | 8.0 | 0.00 | 0.00 | 0.00 | 21 | 1016.2 |
| 20260510045311 | 68 | 360 | 3.0 | 10.0 | 0.00 | 0.00 | 0.00 | 21 | 1016.1 |
| 20260510044847 | 68 | 360 | 3.0 | 10.0 | 0.00 | 0.00 | 0.00 | 21 | 1016.1 |
| 20260510044324 | 68 | 360 | 4.0 | 9.0 | 0.00 | 0.00 | 0.00 | 20 | 1016.1 |
| 20260510043814 | 68 | 360 | 4.0 | 11.0 | 0.00 | 0.00 | 0.00 | 21 | 1016.0 |
| 20260510043313 | 68 | 360 | 6.0 | 12.0 | 0.00 | 0.00 | 0.00 | 20 | 1016.0 |
| 20260510042824 | 68 | 360 | 5.0 | 12.0 | 0.00 | 0.00 | 0.00 | 20 | 1015.9 |
| 20260510042322 | 68 | 360 | 3.0 | 10.0 | 0.00 | 0.00 | 0.00 | 20 | 1015.9 |
| 20260510041813 | 68 | 360 | 3.0 | 10.0 | 0.00 | 0.00 | 0.00 | 19 | 1015.8 |
| 20260510041310 | 68 | 360 | 3.0 | 6.0 | 0.00 | 0.00 | 0.00 | 19 | 1015.8 |
| 20260510040824 | 68 | 360 | 3.0 | 5.0 | 0.00 | 0.00 | 0.00 | 18 | 1015.7 |
| 20260510040321 | 68 | 360 | 1.0 | 4.0 | 0.00 | 0.00 | 0.00 | 17 | 1015.8 |
| 20260510035834 | 68 | 360 | 1.0 | 5.0 | 0.00 | 0.00 | 0.00 | 16 | 1015.7 |
| 20260510035311 | 69 | 360 | 2.0 | 5.0 | 0.00 | 0.00 | 0.00 | 16 | 1015.6 |
| 20260510034824 | 69 | 360 | 3.0 | 4.0 | 0.00 | 0.00 | 0.00 | 16 | 1015.5 |
| 20260510034322 | 69 | 360 | 2.0 | 6.0 | 0.00 | 0.00 | 0.00 | 15 | 1015.4 |
| 20260510033817 | 69 | 360 | 3.0 | 6.0 | 0.00 | 0.00 | 0.00 | 15 | 1015.3 |
| 20260510033337 | 69 | 360 | 3.0 | 6.0 | 0.00 | 0.00 | 0.00 | 15 | 1015.3 |
| 20260510032827 | 69 | 360 | 3.0 | 9.0 | 0.00 | 0.00 | 0.00 | 15 | 1015.2 |
| 20260510032325 | 70 | 360 | 4.0 | 9.0 | 0.00 | 0.00 | 0.00 | 15 | 1015.1 |
| 20260510031816 | 70 | 360 | 3.0 | 9.0 | 0.00 | 0.00 | 0.00 | 14 | 1015.1 |
| 20260510031313 | 70 | 360 | 3.0 | 8.0 | 0.00 | 0.00 | 0.00 | 14 | 1015.0 |
| 20260510030826 | 70 | 360 | 4.0 | 6.0 | 0.00 | 0.00 | 0.00 | 14 | 1014.9 |
| 20260510030324 | 70 | 360 | 3.0 | 6.0 | 0.00 | 0.00 | 0.00 | 14 | 1014.9 |
| 20260510025815 | 70 | 360 | 3.0 | 6.0 | 0.00 | 0.00 | 0.00 | 14 | 1014.7 |
| 20260510025313 | 70 | 360 | 4.0 | 9.0 | 0.00 | 0.00 | 0.00 | 13 | 1014.6 |
| 20260510024824 | 70 | 360 | 4.0 | 9.0 | 0.00 | 0.00 | 0.00 | 13 | 1014.5 |
| 20260510024345 | 70 | 360 | 4.0 | 9.0 | 0.00 | 0.00 | 0.00 | 14 | 1014.4 |
| 20260510023814 | 71 | 360 | 3.0 | 5.0 | 0.00 | 0.00 | 0.00 | 14 | 1014.3 |
| 20260510023312 | 71 | 360 | 3.0 | 6.0 | 0.00 | 0.00 | 0.00 | 14 | 1014.2 |
| 20260510022826 | 72 | 360 | 3.0 | 6.0 | 0.00 | 0.00 | 0.00 | 14 | 1014.2 |
| 20260510022323 | 72 | 360 | 2.0 | 6.0 | 0.00 | 0.00 | 0.00 | 13 | 1014.2 |
| 20260510021814 | 73 | 360 | 2.0 | 6.0 | 0.00 | 0.00 | 0.00 | 13 | 1014.0 |
| 20260510021333 | 73 | 360 | 3.0 | 5.0 | 0.00 | 0.00 | 0.00 | 13 | 1014.0 |
| 20260510020849 | 74 | 360 | 3.0 | 9.0 | 0.00 | 0.00 | 0.00 | 13 | 1013.9 |
| 20260510020347 | 74 | 360 | 3.0 | 10.0 | 0.00 | 0.00 | 0.00 | 13 | 1013.9 |
| 20260510015819 | 74 | 360 | 4.0 | 11.0 | 0.00 | 0.00 | 0.00 | 12 | 1013.8 |
| 20260510015316 | 75 | 360 | 6.0 | 12.0 | 0.00 | 0.00 | 0.00 | 12 | 1013.7 |
| 20260510014850 | 75 | 360 | 5.0 | 12.0 | 0.00 | 0.00 | 0.00 | 12 | 1013.7 |
| 20260510014327 | 76 | 360 | 5.0 | 11.0 | 0.00 | 0.00 | 0.00 | 12 | 1013.6 |
| 20260510013819 | 76 | 360 | 5.0 | 11.0 | 0.00 | 0.00 | 0.00 | 12 | 1013.5 |
| 20260510013339 | 77 | 360 | 5.0 | 12.0 | 0.00 | 0.00 | 0.00 | 12 | 1013.4 |
| 20260510012830 | 77 | 360 | 6.0 | 12.0 | 0.00 | 0.00 | 0.00 | 11 | 1013.4 |
| 20260510012311 | 78 | 360 | 6.0 | 14.0 | 0.00 | 0.00 | 0.00 | 11 | 1013.4 |
| 20260510011823 | 78 | 303 | 7.0 | 14.0 | 0.00 | 0.00 | 0.00 | 11 | 1013.3 |
| 20260510011321 | 79 | 300 | 8.0 | 15.0 | 0.00 | 0.00 | 0.00 | 10 | 1013.2 |
| 20260510010812 | 79 | 256 | 8.0 | 15.0 | 0.00 | 0.00 | 0.00 | 11 | 1013.2 |
| 20260510010311 | 79 | 267 | 5.0 | 14.0 | 0.00 | 0.00 | 0.00 | 11 | 1013.2 |
| 20260510005823 | 79 | 204 | 5.0 | 13.0 | 0.00 | 0.00 | 0.00 | 11 | 1013.2 |
| 20260510005320 | 79 | 304 | 4.0 | 17.0 | 0.00 | 0.00 | 0.00 | 10 | 1013.2 |
| 20260510004811 | 80 | 283 | 9.0 | 17.0 | 0.00 | 0.00 | 0.00 | 10 | 1013.2 |
| 20260510004332 | 80 | 315 | 8.0 | 15.0 | 0.00 | 0.00 | 0.00 | 10 | 1013.1 |
| 20260510003823 | 80 | 258 | 5.0 | 24.0 | 0.00 | 0.00 | 0.00 | 10 | 1013.2 |
| 20260510003321 | 81 | 328 | 8.0 | 24.0 | 0.00 | 0.00 | 0.00 | 10 | 1013.2 |
| 20260510002834 | 81 | 283 | 9.0 | 23.0 | 0.00 | 0.00 | 0.00 | 10 | 1013.2 |
| 20260510002311 | 82 | 222 | 11.0 | 23.0 | 0.00 | 0.00 | 0.00 | 9 | 1013.2 |
| 20260510001846 | 82 | 286 | 9.0 | 15.0 | 0.00 | 0.00 | 0.00 | 9 | 1013.2 |
| 20260510001323 | 82 | 301 | 4.0 | 16.0 | 0.00 | 0.00 | 0.00 | 9 | 1013.1 |
| 20260510000814 | 83 | 307 | 7.0 | 16.0 | 0.00 | 0.00 | 0.00 | 9 | 1013.2 |
| 20260510000311 | 83 | 314 | 3.0 | 13.0 | 0.00 | 0.00 | 0.00 | 10 | 1013.0 |
| 20260509235826 | 82 | 262 | 6.0 | 19.0 | 0.00 | 0.00 | 0.00 | 11 | 1013.2 |
| 20260509235324 | 82 | 269 | 6.0 | 19.0 | 0.00 | 0.00 | 0.00 | 10 | 1013.1 |
| 20260509234836 | 81 | 324 | 7.0 | 18.0 | 0.00 | 0.00 | 0.00 | 10 | 1013.2 |
| 20260509234313 | 81 | 239 | 7.0 | 20.0 | 0.00 | 0.00 | 0.00 | 10 | 1013.2 |
| 20260509233825 | 81 | 311 | 12.0 | 20.0 | 0.00 | 0.00 | 0.00 | 9 | 1013.2 |
| 20260509233322 | 81 | 299 | 5.0 | 17.0 | 0.00 | 0.00 | 0.00 | 10 | 1013.1 |
| 20260509232813 | 81 | 301 | 5.0 | 17.0 | 0.00 | 0.00 | 0.00 | 10 | 1013.1 |
| 20260509232311 | 81 | 199 | 8.0 | 20.0 | 0.00 | 0.00 | 0.00 | 10 | 1013.2 |
| 20260509231823 | 82 | 243 | 9.0 | 23.0 | 0.00 | 0.00 | 0.00 | 9 | 1013.1 |
| 20260509231342 | 83 | 278 | 9.0 | 23.0 | 0.00 | 0.00 | 0.00 | 9 | 1013.2 |